This is the latest recevied weather packets stored in our database for station/object N9ALD. If no packets are shown the sender has not sent any weather packets the latest 10 day(s).
| Time | Temp. | Humidity | Pressure | Rain* | Wind** | Luminosity | Snow |
|---|---|---|---|---|---|---|---|
| 1777080956 | 15.56° C | 91% | 1006.3 hPa | 0 mm | - | 0 W/m² | - |
| 1777080651 | 15.56° C | 91% | 1006 hPa | 0 mm | - | 0 W/m² | - |
| 1777080347 | 15.56° C | 90% | 1005.9 hPa | 0 mm | - | 0 W/m² | - |
| 1777080041 | 15.56° C | 90% | 1006.2 hPa | 0 mm | - | 0 W/m² | - |
| 1777079740 | 16.11° C | 90% | 1006 hPa | 0 mm | - | 0 W/m² | - |
| 1777079437 | 16.11° C | 89% | 1006.1 hPa | 0 mm | - | 0 W/m² | - |
| 1777079132 | 16.11° C | 89% | 1006 hPa | 0 mm | - | 0 W/m² | - |
| 1777078829 | 16.11° C | 89% | 1005.7 hPa | 0 mm | - | 0 W/m² | - |
| 1777078526 | 16.67° C | 88% | 1005.7 hPa | 0 mm | - | 0 W/m² | - |
| 1777078221 | 16.67° C | 87% | 1005.8 hPa | 0 mm | - | 0 W/m² | - |
| 1777077921 | 16.67° C | 87% | 1005.5 hPa | 0 mm | - | 0 W/m² | - |
| 1777077618 | 16.67° C | 86% | 1005.6 hPa | 0 mm | - | 1 W/m² | - |
| 1777077314 | 16.67° C | 86% | 1005.6 hPa | 0 mm | - | 1 W/m² | - |
| 1777077012 | 16.67° C | 86% | 1005.7 hPa | 0 mm | - | 3 W/m² | - |
| 1777076709 | 17.22° C | 85% | 1005.6 hPa | 0 mm | - | 4 W/m² | - |
| 1777076405 | 17.22° C | 85% | 1005.6 hPa | 0 mm | - | 7 W/m² | - |
| 1777076100 | 17.22° C | 84% | 1005.6 hPa | 0 mm | - | 12 W/m² | - |
| 1777075796 | 17.78° C | 84% | 1005.6 hPa | 0 mm | - | 17 W/m² | - |
| 1777075491 | 17.78° C | 83% | 1005.6 hPa | 0 mm | - | 24 W/m² | - |
| 1777075189 | 17.78° C | 83% | 1005.5 hPa | 0 mm | - | 35 W/m² | - |
| 1777074884 | 17.78° C | 84% | 1005.5 hPa | 0 mm | - | 45 W/m² | - |
| 1777074579 | 17.78° C | 87% | 1005.5 hPa | 0 mm | - | 47 W/m² | - |
| 1777074276 | 17.22° C | 88% | 1005.4 hPa | 0 mm | - | 54 W/m² | - |
| 1777073973 | 16.67° C | 88% | 1005.3 hPa | 0 mm | - | 45 W/m² | - |
| 1777073668 | 16.67° C | 88% | 1005.4 hPa | 0 mm | - | 38 W/m² | - |
* Rain latest hour (hover to see other rain measurements)
** Current wind speed in m/s (hover to see current wind gust speed)